Edwards AFB North Base, CA

8:30 PM PDT on August 24, 2019 (GMT -0700)
Edwards AFB North Base

Weather History for K9L2 - May, 2019

Change the Weather History Date:

Tuesday, May 7, 2019

  Actual Average (WUND) Record (WUND)
Temperature  
Mean Temperature 66 °F -  
Max Temperature 81 °F - - (-1)
Min Temperature 52 °F - - (-1)
Cooling Degree Days 1    
Growing Degree Days 16 (Base 50)    
Moisture  
Dew Point 44 °F    
Average Humidity 52    
Maximum Humidity 72    
Minimum Humidity 22    
Precipitation  
Precipitation 0.00 in - - ()
Sea Level Pressure  
Sea Level Pressure 29.88 in    
Wind  
Wind Speed 15 mph (SSW)    
Max Wind Speed 26 mph    
Max Gust Speed 34 mph    
Visibility 8 miles    
Events      
Averages and records for this station are not official NWS values.
T = Trace of Precipitation, MM = Missing Value Source: NWS Daily Summary

Daily Weather History Graph

Daily Weather History Graph

Search for Another Location

Airport or City:

Astronomy

May. 07, 2019 Rise Set
Actual Time 5:54 AM PDT 7:41 PM PDT
Civil Twilight 5:27 AM PDT 8:09 PM PDT
Nautical Twilight 4:54 AM PDT 8:42 PM PDT
Astronomical Twilight 4:18 AM PDT 9:17 PM PDT
Moon 8:07 AM PDT (5/7) 10:43 PM PDT (5/7)
Length of Visible Light 14h 41m
Length of Day
13h 46m
Waxing Crescent, 9% of the Moon is Illuminated
May 7
Waxing Crescent
May 11
First Quarter
May 18
Full
May 26
Last Quarter
Jun 3
New

Hourly Weather History & Observations

Time (PDT) Temp. Dew Point Humidity Pressure Visibility Wind Dir Wind Speed Gust Speed Precip Events Conditions
12:58 AM 54.0 °F 43.3 °F 67% 29.86 in 10.0 mi South 12.7 mph - N/A   Clear
1:58 AM 53.2 °F 44.1 °F 71% 29.85 in 10.0 mi South 15.0 mph - N/A   Clear
2:58 AM 52.5 °F 43.7 °F 72% 29.87 in 10.0 mi South 11.5 mph - N/A   Clear
3:58 AM 52.3 °F 43.5 °F 72% 29.88 in 10.0 mi South 12.7 mph - N/A   Clear
4:58 AM 52.3 °F 43.5 °F 72% 29.89 in 10.0 mi South 10.4 mph - N/A   Clear
5:58 AM 52.2 °F 43.5 °F 72% 29.90 in 10.0 mi South 12.7 mph - N/A   Clear
6:58 AM 54.0 °F 44.1 °F 69% 29.92 in 10.0 mi South 11.5 mph - N/A   Clear
7:58 AM 57.4 °F 44.8 °F 63% 29.94 in 9.0 mi South 11.5 mph - N/A   Clear
8:58 AM 63.7 °F 44.6 °F 50% 29.93 in 8.0 mi South 16.1 mph - N/A   Clear
9:58 AM 68.5 °F 43.5 °F 40% 29.92 in 7.0 mi South 12.7 mph - N/A   Clear
10:58 AM 71.2 °F 43.9 °F 37% 29.92 in 7.0 mi SSW 15.0 mph - N/A   Clear
11:58 AM 73.6 °F 43.5 °F 34% 29.91 in 9.0 mi South 15.0 mph - N/A   Clear
12:58 PM 77.2 °F 42.8 °F 29% 29.88 in 8.0 mi South 17.3 mph 24.2 mph N/A   Clear
1:58 PM 78.3 °F 44.1 °F 30% 29.86 in 8.0 mi SSW 16.1 mph 29.9 mph N/A   Clear
2:58 PM 80.8 °F 39.0 °F 22% 29.83 in 8.0 mi SSW 24.2 mph 32.2 mph N/A   Clear
3:58 PM 76.6 °F 44.2 °F 32% 29.84 in 8.0 mi SSW 24.2 mph 32.2 mph N/A   Clear
4:58 PM 76.3 °F 41.4 °F 29% 29.84 in 7.0 mi SW 23.0 mph 28.8 mph N/A   Clear
5:58 PM 68.9 °F 45.5 °F 43% 29.86 in 8.0 mi SSW 26.5 mph 34.5 mph N/A   Clear
6:28 PM 69.8 °F 44.6 °F 40% 29.87 in 6.0 mi SSW 21.9 mph 31.1 mph N/A   Haze
6:43 PM 66.2 °F 44.6 °F 46% 29.87 in 7.0 mi SSW 18.4 mph 28.8 mph N/A   Clear
6:58 PM 67.6 °F 44.4 °F 43% 29.87 in 7.0 mi SSW 20.7 mph 28.8 mph N/A   Clear
7:58 PM 60.6 °F 46.8 °F 60% 29.88 in 7.0 mi SW 18.4 mph 24.2 mph N/A   Clear
8:58 PM 58.5 °F 46.8 °F 65% 29.88 in 9.0 mi SSW 20.7 mph - N/A   Clear
9:58 PM 58.5 °F 46.6 °F 65% 29.88 in 9.0 mi South 20.7 mph - N/A   Clear
10:58 PM 57.7 °F 46.8 °F 67% 29.87 in 9.0 mi South 17.3 mph 24.2 mph N/A   Clear
11:58 PM 57.6 °F 46.8 °F 67% 29.86 in 9.0 mi SSW 19.6 mph - N/A   Clear